Weather History for Salinas, CA

Change the Weather History Date:

Friday, September 13, 2013

  Actual Average Record
Temperature  
Mean Temperature 66 °F 64 °F  
Max Temperature 73 °F 74 °F 102 °F (1971)
Min Temperature 58 °F 55 °F 40 °F (1934)
Degree Days  
Heating Degree Days 0 2  
Month to date heating degree days 0 26  
Since 1 July heating degree days 105 161  
Cooling Degree Days 1 1  
Month to date cooling degree days 42 13  
Year to date cooling degree days 126 82  
Growing Degree Days 16 (Base 50)    
Moisture  
Dew Point 56 °F    
Average Humidity 73    
Maximum Humidity 93    
Minimum Humidity 53    
Precipitation  
Precipitation 0.00 in 0.00 in 0.22 in (1939)
Month to date precipitation 0.02 0.03  
Year to date precipitation 2.37 8.78  
Since 1 July precipitation 0.04 0.06  
Sea Level Pressure  
Sea Level Pressure 29.88 in    
Wind  
Wind Speed 8 mph (West)    
Max Wind Speed 18 mph    
Max Gust Speed 23 mph    
Visibility 9 miles    
Events      
T = Trace of Precipitation, MM = Missing Value Source: NWS Daily Summary

Daily Weather History Graph

Daily Weather History Graph

Search for Another Location

Airport:

Trip Planner

Search our weather history database for the weather conditions in past years. The results will help you decide how hot, cold, wet, or windy it might be!

Date:

Astronomy

Sep. 13, 2013 Rise Set
Actual Time 6:47 AM PDT 7:16 PM PDT
Civil Twilight 6:21 AM PDT 7:42 PM PDT
Nautical Twilight 5:50 AM PDT 8:12 PM PDT
Astronomical Twilight 5:19 AM PDT 8:43 PM PDT
Moon 3:04 PM PDT (9/13) 12:29 AM PDT (9/13)
Length of Visible Light 13h 20m
Length of Day
12h 28m
Waxing Gibbous, 62% of the Moon is Illuminated
Sep 13
Waxing Gibbous
Sep 19
Full
Sep 26
Last Quarter
Oct 4
New
Oct 11
First Quarter

Hourly Weather History & Observations

Time (PDT) Temp. Dew Point Humidity Pressure Visibility Wind Dir Wind Speed Gust Speed Precip Events Conditions
12:53 AM 60.1 °F 57.0 °F 90% 29.94 in 10.0 mi East 3.5 mph - N/A   Overcast
1:53 AM 60.1 °F 57.0 °F 90% 29.94 in 8.0 mi Calm Calm - N/A   Overcast
2:53 AM 60.1 °F 57.0 °F 90% 29.94 in 8.0 mi Variable 3.5 mph - N/A   Overcast
3:53 AM 60.1 °F 57.0 °F 90% 29.94 in 6.0 mi West 5.8 mph - N/A   Overcast
4:06 AM 60.8 °F 57.2 °F 88% 29.91 in 2.5 mi WSW 5.8 mph - N/A   Overcast
4:28 AM 59.0 °F 57.2 °F 94% 29.90 in 4.0 mi SW 6.9 mph - N/A   Overcast
4:53 AM 59.0 °F 57.0 °F 93% 29.93 in 3.0 mi WSW 8.1 mph - N/A   Overcast
5:43 AM 59.0 °F 55.4 °F 88% 29.90 in 10.0 mi West 5.8 mph - N/A   Overcast
5:53 AM 60.1 °F 55.9 °F 86% 29.93 in 10.0 mi WSW 6.9 mph - N/A   Overcast
6:53 AM 60.1 °F 57.0 °F 90% 29.93 in 10.0 mi SW 3.5 mph - N/A   Overcast
7:53 AM 60.1 °F 55.9 °F 86% 29.93 in 10.0 mi WSW 4.6 mph - N/A   Overcast
8:53 AM 61.0 °F 57.0 °F 87% 29.93 in 10.0 mi SW 5.8 mph - N/A   Overcast
9:53 AM 62.1 °F 57.0 °F 84% 29.94 in 10.0 mi WSW 3.5 mph - N/A   Overcast
10:53 AM 64.0 °F 57.0 °F 78% 29.92 in 9.0 mi Variable 4.6 mph - N/A   Overcast
11:38 AM 66.2 °F 57.2 °F 73% 29.88 in 9.0 mi West 5.8 mph - N/A   Scattered Clouds
11:53 AM 69.1 °F 57.9 °F 68% 29.90 in 8.0 mi West 8.1 mph - N/A   Clear
12:53 PM 71.1 °F 57.9 °F 63% 29.88 in 9.0 mi West 9.2 mph - N/A   Clear
1:53 PM 73.0 °F 55.9 °F 55% 29.86 in 10.0 mi West 13.8 mph - N/A   Clear
2:53 PM 69.1 °F 55.9 °F 63% 29.85 in 10.0 mi West 16.1 mph 20.7 mph N/A   Clear
3:53 PM 66.9 °F 55.9 °F 68% 29.84 in 10.0 mi West 15.0 mph - N/A   Clear
4:53 PM 64.9 °F 55.9 °F 73% 29.83 in 10.0 mi WNW 13.8 mph - N/A   Clear
5:49 PM 62.6 °F 55.4 °F 77% 29.80 in 10.0 mi West 13.8 mph - N/A   Scattered Clouds
5:53 PM 63.0 °F 55.9 °F 78% 29.83 in 10.0 mi WNW 13.8 mph - N/A   Scattered Clouds
6:10 PM 62.6 °F 55.4 °F 77% 29.80 in 10.0 mi West 13.8 mph - N/A   Mostly Cloudy
6:53 PM 61.0 °F 55.9 °F 83% 29.83 in 10.0 mi West 13.8 mph - N/A   Overcast
7:53 PM 60.1 °F 55.0 °F 83% 29.82 in 10.0 mi WNW 9.2 mph - N/A   Mostly Cloudy
8:11 PM 60.8 °F 55.4 °F 82% 29.80 in 10.0 mi NW 10.4 mph - N/A   Scattered Clouds
8:53 PM 60.1 °F 55.0 °F 83% 29.83 in 10.0 mi WNW 9.2 mph - N/A   Clear
9:53 PM 60.1 °F 55.0 °F 83% 29.84 in 10.0 mi WNW 8.1 mph - N/A   Clear
10:04 PM 60.8 °F 55.4 °F 82% 29.81 in 10.0 mi WNW 6.9 mph - N/A   Partly Cloudy
10:53 PM 59.0 °F 55.0 °F 87% 29.84 in 10.0 mi WNW 6.9 mph - N/A   Partly Cloudy
11:08 PM 59.0 °F 55.4 °F 88% 29.82 in 10.0 mi West 6.9 mph - N/A   Mostly Cloudy
11:53 PM 59.0 °F 54.0 °F 83% 29.85 in 10.0 mi West 10.4 mph - N/A   Overcast